This demonstration page uses our WeatherBlox Daily Observations layout. Learn more.

Left ArrowRight Arrow

34.16533, -84.80231

Hourly Observations for September 13, 2017

Temp ( °F °C ) Dew Point ( °F °C ) Humidity (%) Winds ( mph kmh ) Pressure ( in mb ) Visibility ( mi km ) Precip ( " mm )
12:53 am 00:53 Cloudy 61 16.1 61 16.1 100 100 ESE 3 6 29.82 1010 10 16 0.00 0.00
1:53 am 01:53 Mostly Cloudy 61 16.1 61 16.1 100 100 SE 3 6 29.82 1010 10 16 0.00 0.00
2:53 am 02:53 Mostly Clear 60 15.6 60 15.6 100 100 VRB 6 9 29.80 1009 10 16 0.00 0.00
3:53 am 03:53 Mostly Cloudy 61 16.1 61 16.1 100 100 SE 6 9 29.81 1010 10 16 0.00 0.00
4:53 am 04:53 Cloudy 61 16.1 61 16.1 100 100 SE 5 7 29.82 1010 10 16 0.00 0.00
5:37 am 05:37 Partly Cloudy 61 16.1 61 16.1 100 100 SSE 8 13 29.85 1011 10 16 0.00 0.00
5:53 am 05:53 Mostly Clear 61 16.1 61 16.1 100 100 SSE 7 11 29.83 1010 10 16 0.00 0.00
6:28 am 06:28 Mostly Cloudy 61 16.1 61 16.1 100 100 SSW 3 6 29.88 1012 10 16 0.00 0.00
6:53 am 06:53 Mostly Cloudy 61 16.1 61 16.1 100 100 SSE 8 13 29.85 1011 10 16 0.00 0.00
7:00 am 07:00 Partly Cloudy 61 16.1 61 16.1 100 100 SE 8 13 29.88 1012 10 16 0.00 0.00
7:53 am 07:53 Sunny 61 16.1 61 16.1 100 100 SSE 8 13 29.86 1011 10 16 0.00 0.00
8:53 am 08:53 Mostly Cloudy 64 17.8 61 16.1 90 90 SSE 10 17 29.88 1012 10 16 0.00 0.00
9:53 am 09:53 Cloudy 65 18.3 59 15 81 81 S 10 17 29.89 1012 10 16 0.00 0.00
10:53 am 10:53 Cloudy 66 18.9 59 15 78 78 S 7 11 29.90 1013 10 16 0.00 0.00
11:53 am 11:53 Cloudy 67 19.4 58 14.4 73 73 VRB 5 7 29.90 1013 10 16 0.00 0.00
12:53 pm 12:53 Cloudy 68 20 59 15 73 73 SSW 5 7 29.91 1013 10 16 0.00 0.00
1:53 pm 13:53 Cloudy 69 20.6 59 15 70 70 SSW 7 11 29.90 1012 10 16 0.00 0.00
2:53 pm 14:53 Cloudy 70 21.1 60 15.6 71 71 VRB 5 7 29.89 1012 10 16 0.00 0.00
3:53 pm 15:53 Cloudy 70 21.1 60 15.6 71 71 Calm 29.89 1012 10 16 0.00 0.00
4:53 pm 16:53 Cloudy 70 21.1 59 15 68 68 VRB 5 7 29.88 1012 10 16 0.00 0.00
5:53 pm 17:53 Cloudy 68 20 61 16.1 78 78 NNW 6 9 29.88 1012 10 16 0.00 0.00
6:53 pm 18:53 Cloudy 67 19.4 61 16.1 81 81 Calm 29.88 1012 10 16 0.00 0.00
7:53 pm 19:53 Cloudy 64 17.8 63 17.2 96 96 Calm 29.89 1012 10 16 0.00 0.00
8:53 pm 20:53 Cloudy 63 17.2 63 17.2 100 100 SE 3 6 29.90 1012 10 16 0.00 0.00
9:53 pm 21:53 Cloudy 63 17.2 63 17.2 100 100 Calm 29.91 1013 10 16 0.00 0.00
10:53 pm 22:53 Cloudy 63 17.2 63 17.2 100 100 Calm 29.91 1013 10 16 0.00 0.00
11:53 pm 23:53 Cloudy 64 17.8 63 17.2 96 96 Calm 29.91 1013 10 16 0.00 0.00

Powered by AerisWeather